• In Netherlands
  • List of Countries
  • For 7 days
  • Water Temperature
  • Satellite Maps
  • Weather Map
  • Weather Widgets
  • user-avatar
    Login

    Hourly Weather Salta

    Today, 24 February, Saturday

    Time Temperature Precipitation Wind Pressure Humidity
    00:00 +18°C° 0 mm 1 mps 650 mmHg 78%
    01:00 +18°C° 0 mm 1 mps 650 mmHg 79%
    02:00 +18°C° 0 mm 1 mps 650 mmHg 79%
    03:00 +18°C° 0 mm 1 mps 650 mmHg 80%
    04:00 +16°C° 0 mm 1 mps 650 mmHg 80%
    05:00 +16°C° 0 mm 1 mps 650 mmHg 80%
    06:00 +19°C° 0 mm 1 mps 651 mmHg 75%
    07:00 +20°C° 0 mm 1 mps 652 mmHg 69%
    08:00 +22°C° 0 mm 1 mps 652 mmHg 63%
    09:00 +23°C° 0 mm 1 mps 653 mmHg 58%
    10:00 +25°C° 0 mm 2 mps 653 mmHg 53%
    11:00 +27°C° 0 mm 2 mps 654 mmHg 48%
    12:00 +27°C° 0.1 mm 2 mps 654 mmHg 48%
    13:00 +27°C° 0.1 mm 3 mps 653 mmHg 47%
    14:00 +27°C° 0.1 mm 3 mps 653 mmHg 47%
    15:00 +27°C° 0.2 mm 3 mps 652 mmHg 51%
    16:00 +26°C° 0.2 mm 2 mps 652 mmHg 54%
    17:00 +25°C° 0.2 mm 2 mps 651 mmHg 58%
    18:00 +23°C° 0.1 mm 2 mps 651 mmHg 63%
    19:00 +22°C° 0.1 mm 1 mps 651 mmHg 68%
    20:00 +20°C° 0.1 mm 1 mps 651 mmHg 74%
    21:00 +20°C° 0 mm 1 mps 652 mmHg 74%
    22:00 +20°C° 0 mm 1 mps 652 mmHg 74%
    23:00 +20°C° 0 mm 1 mps 653 mmHg 74%

    Tomorrow, 25 February, Sunday

    Time Temperature Precipitation Wind Pressure Humidity
    00:00 +19°C° 0 mm 1 mps 653 mmHg 74%
    01:00 +19°C° 0 mm 1 mps 652 mmHg 75%
    02:00 +19°C° 0 mm 1 mps 652 mmHg 75%
    03:00 +18°C° 0 mm 1 mps 652 mmHg 76%
    04:00 +18°C° 0 mm 1 mps 652 mmHg 76%
    05:00 +18°C° 0 mm 1 mps 652 mmHg 77%
    06:00 +19°C° 0 mm 1 mps 652 mmHg 72%
    07:00 +20°C° 0 mm 1 mps 653 mmHg 68%
    08:00 +22°C° 0 mm 1 mps 654 mmHg 63%
    09:00 +24°C° 0 mm 2 mps 654 mmHg 58%
    10:00 +26°C° 0 mm 2 mps 654 mmHg 52%
    11:00 +27°C° 0 mm 2 mps 655 mmHg 47%
    12:00 +27°C° 0.1 mm 3 mps 654 mmHg 48%
    13:00 +27°C° 0.1 mm 3 mps 653 mmHg 49%
    14:00 +27°C° 0.1 mm 3 mps 653 mmHg 49%
    15:00 +27°C° 0.2 mm 3 mps 652 mmHg 51%
    16:00 +26°C° 0.2 mm 3 mps 651 mmHg 53%
    17:00 +26°C° 0.2 mm 3 mps 651 mmHg 55%
    18:00 +25°C° 0.3 mm 2 mps 651 mmHg 60%
    19:00 +23°C° 0.3 mm 1 mps 651 mmHg 65%
    20:00 +22°C° 0.3 mm 1 mps 651 mmHg 70%
    21:00 +21°C° 0.1 mm 1 mps 652 mmHg 72%
    22:00 +21°C° 0.1 mm 1 mps 652 mmHg 74%
    23:00 +20°C° 0.1 mm 1 mps 653 mmHg 75%

    Day after tomorrow, 26 February, Monday

    Time Temperature Precipitation Wind Pressure Humidity
    00:00 +20°C° 0.1 mm 1 mps 652 mmHg 76%
    01:00 +20°C° 0.1 mm 1 mps 652 mmHg 76%
    02:00 +20°C° 0.1 mm 1 mps 652 mmHg 76%
    03:00 +19°C° 0 mm 1 mps 651 mmHg 76%
    04:00 +19°C° 0 mm 1 mps 651 mmHg 77%
    05:00 +18°C° 0 mm 1 mps 651 mmHg 77%
    06:00 +20°C° 0 mm 1 mps 651 mmHg 72%
    07:00 +21°C° 0 mm 1 mps 652 mmHg 68%
    08:00 +22°C° 0 mm 1 mps 653 mmHg 63%
    09:00 +24°C° 0 mm 2 mps 653 mmHg 57%
    10:00 +26°C° 0 mm 2 mps 653 mmHg 52%
    11:00 +28°C° 0 mm 3 mps 653 mmHg 47%
    12:00 +28°C° 0.1 mm 3 mps 652 mmHg 46%
    13:00 +28°C° 0.1 mm 3 mps 652 mmHg 46%
    14:00 +29°C° 0.1 mm 3 mps 651 mmHg 45%
    15:00 +28°C° 0.3 mm 3 mps 650 mmHg 48%
    16:00 +28°C° 0.3 mm 3 mps 650 mmHg 51%
    17:00 +27°C° 0.3 mm 3 mps 649 mmHg 54%
    18:00 +25°C° 0.2 mm 2 mps 649 mmHg 60%
    19:00 +24°C° 0.2 mm 2 mps 649 mmHg 67%
    20:00 +22°C° 0.2 mm 1 mps 649 mmHg 73%
    21:00 +21°C° 0.3 mm 1 mps 650 mmHg 75%
    22:00 +21°C° 0.3 mm 1 mps 650 mmHg 78%
    23:00 +20°C° 0.3 mm 1 mps 650 mmHg 80%

    27 February, Tuesday

    Time Temperature Precipitation Wind Pressure Humidity
    00:00 +20°C° 0.1 mm 1 mps 650 mmHg 80%
    01:00 +20°C° 0.1 mm 1 mps 649 mmHg 80%
    02:00 +19°C° 0.1 mm 1 mps 649 mmHg 80%
    03:00 +19°C° 0 mm 1 mps 649 mmHg 80%
    04:00 +19°C° 0 mm 1 mps 649 mmHg 80%
    05:00 +18°C° 0 mm 1 mps 648 mmHg 81%
    06:00 +20°C° 0 mm 1 mps 649 mmHg 76%
    07:00 +21°C° 0 mm 1 mps 650 mmHg 71%
    08:00 +22°C° 0 mm 1 mps 651 mmHg 66%
    09:00 +24°C° 0 mm 1 mps 651 mmHg 60%
    10:00 +26°C° 0 mm 2 mps 651 mmHg 55%
    11:00 +27°C° 0 mm 3 mps 652 mmHg 50%
    12:00 +28°C° 0.4 mm 3 mps 651 mmHg 50%
    13:00 +28°C° 0.4 mm 3 mps 650 mmHg 51%
    14:00 +28°C° 0.4 mm 3 mps 649 mmHg 52%
    15:00 +27°C° 0.5 mm 3 mps 649 mmHg 55%
    16:00 +27°C° 0.5 mm 3 mps 648 mmHg 58%
    17:00 +26°C° 0.5 mm 3 mps 648 mmHg 61%
    18:00 +24°C° 0.6 mm 2 mps 648 mmHg 69%
    19:00 +23°C° 0.6 mm 1 mps 648 mmHg 77%
    20:00 +21°C° 0.6 mm 1 mps 648 mmHg 84%
    21:00 +20°C° 0.2 mm 1 mps 649 mmHg 85%
    22:00 +20°C° 0.2 mm 1 mps 649 mmHg 86%
    23:00 +20°C° 0.2 mm 1 mps 649 mmHg 87%

    28 February, Wednesday

    Time Temperature Precipitation Wind Pressure Humidity
    00:00 +20°C° 0.2 mm 1 mps 649 mmHg 86%
    01:00 +19°C° 0.2 mm 1 mps 649 mmHg 86%
    02:00 +19°C° 0.2 mm 1 mps 649 mmHg 86%
    03:00 +19°C° 0.1 mm 1 mps 649 mmHg 87%
    04:00 +19°C° 0.1 mm 1 mps 649 mmHg 87%
    05:00 +19°C° 0.1 mm 1 mps 649 mmHg 88%
    06:00 +20°C° 0.1 mm 1 mps 650 mmHg 84%
    07:00 +21°C° 0.1 mm 1 mps 650 mmHg 80%
    08:00 +22°C° 0.1 mm 1 mps 651 mmHg 76%
    09:00 +23°C° 0.4 mm 2 mps 651 mmHg 72%
    10:00 +24°C° 0.4 mm 2 mps 651 mmHg 68%
    11:00 +25°C° 0.4 mm 2 mps 651 mmHg 64%
    12:00 +26°C° 0.7 mm 3 mps 651 mmHg 64%
    13:00 +26°C° 0.7 mm 3 mps 650 mmHg 65%
    14:00 +26°C° 0.7 mm 3 mps 649 mmHg 65%
    15:00 +26°C° 0.7 mm 3 mps 649 mmHg 67%
    16:00 +25°C° 0.7 mm 3 mps 649 mmHg 70%
    17:00 +25°C° 0.7 mm 2 mps 648 mmHg 73%
    18:00 +23°C° 0.6 mm 2 mps 648 mmHg 79%
    19:00 +21°C° 0.6 mm 2 mps 649 mmHg 85%
    20:00 +20°C° 0.6 mm 1 mps 649 mmHg 91%
    21:00 +20°C° 0.5 mm 1 mps 650 mmHg 91%
    22:00 +20°C° 0.5 mm 1 mps 650 mmHg 90%
    23:00 +20°C° 0.5 mm 1 mps 651 mmHg 90%

    1 March, Thursday

    Time Temperature Precipitation Wind Pressure Humidity
    00:00 +19°C° 0.1 mm 1 mps 650 mmHg 90%
    01:00 +19°C° 0.1 mm 1 mps 650 mmHg 90%
    02:00 +17°C° 0.1 mm 0 mps 650 mmHg 90%
    03:00 +17°C° 0 mm 0 mps 650 mmHg 90%
    04:00 +16°C° 0 mm 0 mps 650 mmHg 90%
    05:00 +16°C° 0 mm 0 mps 650 mmHg 90%
    06:00 +19°C° 0 mm 1 mps 650 mmHg 87%
    07:00 +20°C° 0 mm 1 mps 651 mmHg 84%
    08:00 +21°C° 0 mm 1 mps 652 mmHg 81%
    09:00 +22°C° 0.1 mm 1 mps 652 mmHg 75%
    10:00 +24°C° 0.1 mm 2 mps 652 mmHg 69%
    11:00 +26°C° 0.1 mm 2 mps 653 mmHg 62%
    12:00 +26°C° 0.2 mm 2 mps 652 mmHg 61%
    13:00 +27°C° 0.2 mm 2 mps 651 mmHg 60%
    14:00 +27°C° 0.2 mm 3 mps 651 mmHg 58%
    15:00 +27°C° 0.2 mm 3 mps 650 mmHg 60%
    16:00 +26°C° 0.2 mm 3 mps 650 mmHg 62%
    17:00 +26°C° 0.2 mm 3 mps 649 mmHg 64%
    18:00 +25°C° 0.1 mm 2 mps 649 mmHg 72%
    19:00 +23°C° 0.1 mm 1 mps 650 mmHg 79%
    20:00 +21°C° 0.1 mm 1 mps 650 mmHg 87%
    21:00 +21°C° 0.2 mm 1 mps 650 mmHg 87%
    22:00 +19°C° 0.2 mm 0 mps 651 mmHg 87%
    23:00 +19°C° 0.2 mm 0 mps 651 mmHg 88%
    Show more